Vorticity
10 11 10 7 6 5 6 6 4 3 12 9 7 7 5 5 5 5 5 6 6 7 8 10 12 12 13 9 4 4 1 3 5 3 5 3 3 3 2 2 8 7 3
10 11 11 12 7 6 6 6 5 4 3 7 5 10 5 6 8 6 6 5 6 8 7 9 9 12 15 12 6 1 7 8 6 6 3 3 1 2 2 4 7 6 3
5 13 10 9 11 8 6 5 5 6 4 4 6 7 7 19 8 10 7 7 5 4 5 7 7 9 8 8 5 5 5 4 3 3 3 3 2 3 4 4 8 6 3
-1 4 13 10 8 12 9 5 6 5 5 5 5 5 7 3 2 8 10 7 8 7 4 5 6 8 7 5 5 4 4 3 4 4 5 5 3 3 4 7 11 4 4
8 9 8 13 13 11 11 12 7 4 4 4 4 5 5 6 6 5 7 7 7 9 8 8 4 4 7 6 6 6 5 4 4 5 6 5 3 5 4 8 7 5 3
8 4 5 8 5 9 11 9 12 9 6 5 5 4 4 6 7 8 6 8 8 9 10 8 8 7 4 3 5 6 6 6 6 6 4 4 4 5 6 8 6 5 5
4 3 9 9 7 8 12 10 13 12 10 7 8 7 6 6 6 6 6 6 8 7 9 9 9 8 8 8 8 6 5 4 4 5 5 6 7 7 9 8 5 5 6
14 11 11 3 8 9 5 12 12 13 14 11 6 8 7 6 5 5 6 6 6 8 7 7 8 9 9 9 9 9 8 8 8 7 6 5 6 11 9 6 5 7 4
2 13 2 0 7 5 12 10 11 15 15 14 14 9 11 9 7 6 5 6 6 7 9 8 6 7 7 7 8 9 9 12 13 13 12 12 11 11 6 5 7 8 5
19 20 17 5 13 8 7 18 9 10 14 17 15 14 14 16 11 9 8 7 7 6 7 10 9 7 7 7 7 7 7 9 9 10 8 8 10 4 5 6 7 5 6
9 11 9 4 12 7 5 7 20 7 6 13 12 12 12 16 17 13 11 9 8 8 7 8 10 11 8 7 7 5 6 6 8 9 7 7 8 7 8 6 6 4 7
9 1 3 19 3 14 5 0 8 19 3 6 7 10 15 10 9 13 14 12 10 8 10 11 10 11 11 9 8 7 9 8 8 9 9 9 7 13 6 5 5 6 9
0 25 31 18 8 16 1 1 16 17 8 7 7 5 5 10 15 13 10 12 14 10 10 10 12 9 9 9 8 9 10 9 9 10 12 8 8 2 4 6 7 10 8
2 25 15 19 35 5 15 6 5 9 13 7 9 8 7 8 6 8 14 15 13 11 12 13 12 10 7 7 8 8 8 10 11 11 10 7 6 6 6 8 10 8 5
-12 20 8 -0 8 19 10 8 9 11 14 16 15 12 14 5 3 5 6 3 7 13 17 15 13 12 12 9 9 10 10 9 10 10 9 8 7 5 6 8 13 6 4
10 5 9 14 8 30 9 -5 9 13 14 4 2 6 14 15 12 10 11 10 8 2 1 -1 5 10 9 11 9 10 10 10 13 11 9 8 6 4 6 12 9 3 7
1 -5 9 14 22 10 -23 27 14 -8 6 8 3 14 10 8 12 11 13 12 12 14 9 11 7 2 12 7 10 10 10 10 13 10 8 8 7 7 3 9 -1 -3 2
13 -0 -4 -1 -0 2 21 15 12 -13 -0 -0 8 5 10 10 17 10 16 13 16 9 6 1 13 19 14 15 12 10 9 9 12 15 16 13 10 13 4 16 10 0 -10
37 -21 -8 -2 3 -3 0 6 21 10 3 10 12 16 8 5 10 6 13 17 16 12 3 2 6 8 10 12 19 17 12 14 25 12 13 18 15 -1 -5 -4 9 12 -3
20 8 -12 -1 -12 -5 4 0 11 15 -1 12 12 9 14 10 8 2 -1 26 19 7 9 10 12 14 10 14 14 14 8 6 5 11 7 22 -5 -16 7 7 4 35 28
18 5 8 2 -2 2 8 5 -0 14 11 9 13 18 17 16 15 10 10 8 23 8 11 10 8 13 20 14 10 5 9 20 12 10 4 1 -0 13 -1 12 17 8 5
9 22 13 8 4 1 7 6 2 -0 8 13 12 11 10 11 8 10 10 9 29 19 6 7 7 4 6 6 10 15 16 5 5 8 -1 14 14 10 19 16 8 10 41
21 14 12 12 -0 1 7 8 8 16 7 9 14 6 4 4 3 9 6 3 32 19 14 9 6 12 5 3 16 21 5 1 5 2 26 16 12 16 20 34 22 16 5
17 25 15 23 12 12 9 8 8 5 9 14 10 13 12 3 4 17 15 13 12 5 12 9 7 -7 -9 9 -4 27 5 8 12 16 8 10 14 4 -8 21 5 9 14
27 23 15 26 26 22 17 24 6 10 -1 3 18 11 11 17 1 21 10 4 14 34 24 18 16 13 7 -0 -3 15 4 11 11 21 9 3 19 16 20 9 3 -1 1
21 8 8 19 15 12 22 15 27 22 7 30 28 22 18 26 20 21 19 21 7 4 9 17 19 11 5 9 7 5 11 33 31 24 19 15 12 12 7 16 7 9 15
Height
3191 3196 3199 3202 3206 3210 3213 3217 3220 3223 3225 3227 3229 3233 3235 3237 3238 3240 3242 3244 3245 3247 3248 3249 3249 3250 3252 3254 3256 3257 3259 3259 3260 3260 3260 3260 3259 3258 3257 3255 3253 3251 3249
3188 3192 3195 3199 3202 3206 3209 3213 3216 3219 3222 3225 3227 3230 3232 3235 3237 3239 3241 3242 3244 3246 3248 3248 3249 3250 3251 3253 3254 3256 3257 3258 3258 3258 3258 3258 3258 3256 3255 3254 3251 3249 3247
3183 3187 3191 3194 3198 3201 3205 3209 3212 3215 3218 3221 3223 3226 3229 3232 3234 3237 3239 3240 3242 3244 3245 3247 3248 3249 3250 3251 3253 3254 3255 3255 3255 3256 3256 3255 3255 3254 3253 3251 3249 3248 3246
3173 3180 3185 3189 3193 3198 3201 3204 3207 3210 3214 3216 3219 3222 3225 3227 3230 3233 3236 3237 3239 3241 3242 3244 3246 3247 3249 3249 3250 3251 3252 3253 3253 3253 3254 3254 3254 3252 3250 3248 3248 3245 3244
3164 3170 3177 3183 3188 3192 3195 3199 3202 3204 3208 3211 3214 3216 3219 3222 3225 3228 3231 3233 3234 3237 3239 3241 3243 3244 3245 3246 3247 3249 3249 3249 3250 3250 3250 3250 3251 3249 3246 3245 3243 3241 3240
3157 3163 3170 3176 3180 3184 3189 3193 3196 3199 3201 3204 3207 3210 3213 3216 3220 3224 3227 3228 3230 3232 3234 3236 3238 3239 3241 3243 3243 3244 3245 3245 3246 3246 3246 3246 3246 3245 3243 3241 3239 3237 3236
3152 3158 3165 3170 3172 3177 3182 3184 3188 3192 3195 3196 3200 3203 3206 3209 3213 3217 3220 3222 3224 3226 3228 3230 3232 3234 3236 3237 3238 3239 3240 3240 3241 3241 3241 3242 3241 3240 3238 3238 3236 3234 3231
3143 3148 3154 3161 3165 3169 3172 3176 3180 3184 3187 3190 3192 3196 3199 3202 3206 3210 3214 3215 3217 3219 3221 3224 3226 3228 3230 3231 3232 3232 3233 3234 3235 3235 3235 3236 3235 3235 3234 3232 3231 3229 3228
3137 3139 3142 3148 3155 3161 3164 3169 3172 3175 3178 3181 3185 3187 3191 3195 3199 3203 3206 3208 3209 3212 3215 3217 3219 3221 3224 3224 3224 3226 3227 3229 3229 3229 3229 3229 3229 3229 3228 3227 3226 3224 3222
3128 3132 3136 3140 3145 3151 3157 3161 3165 3168 3170 3172 3175 3179 3183 3187 3191 3195 3198 3200 3201 3204 3207 3209 3212 3215 3217 3218 3218 3219 3220 3224 3223 3223 3222 3222 3223 3224 3222 3220 3220 3218 3215
3122 3126 3130 3133 3138 3144 3148 3152 3157 3161 3163 3164 3166 3170 3174 3178 3183 3186 3189 3190 3193 3196 3199 3202 3206 3208 3210 3212 3212 3212 3214 3216 3216 3216 3216 3216 3218 3218 3217 3215 3213 3211 3210
3116 3119 3123 3126 3130 3135 3139 3144 3149 3153 3156 3159 3160 3160 3165 3169 3174 3177 3180 3182 3185 3187 3190 3195 3198 3201 3203 3203 3204 3206 3207 3207 3206 3208 3209 3211 3211 3211 3209 3208 3206 3205 3204
3108 3111 3115 3118 3122 3128 3132 3137 3141 3145 3149 3152 3154 3155 3157 3162 3166 3169 3173 3175 3177 3178 3181 3185 3189 3191 3193 3193 3194 3197 3198 3198 3198 3199 3202 3203 3203 3203 3202 3201 3200 3199 3198
3104 3107 3109 3112 3115 3120 3125 3129 3134 3137 3141 3144 3147 3149 3152 3155 3158 3162 3165 3167 3169 3171 3173 3176 3179 3181 3182 3183 3185 3186 3187 3189 3190 3191 3192 3194 3194 3195 3194 3193 3193 3192 3191
3097 3099 3103 3106 3111 3113 3117 3123 3127 3130 3133 3136 3139 3141 3145 3148 3151 3156 3160 3162 3163 3165 3166 3166 3167 3169 3171 3173 3175 3177 3179 3179 3180 3182 3183 3185 3186 3186 3186 3184 3184 3184 3183
3087 3091 3094 3098 3101 3102 3105 3115 3117 3122 3125 3127 3131 3133 3137 3139 3142 3145 3148 3150 3153 3155 3155 3155 3156 3158 3161 3164 3166 3168 3169 3169 3171 3172 3173 3175 3176 3176 3176 3175 3175 3175 3174
3076 3078 3083 3086 3089 3092 3099 3102 3107 3113 3115 3118 3123 3126 3128 3131 3133 3135 3137 3140 3142 3144 3144 3146 3147 3149 3152 3155 3157 3158 3159 3160 3161 3161 3163 3165 3167 3168 3169 3168 3166 3167 3166
3068 3067 3070 3075 3080 3085 3089 3092 3095 3100 3105 3109 3113 3117 3119 3120 3123 3125 3127 3129 3132 3134 3135 3136 3138 3142 3144 3145 3148 3149 3150 3150 3151 3152 3154 3156 3158 3160 3160 3160 3160 3159 3156
3055 3059 3062 3065 3070 3075 3080 3085 3090 3094 3095 3100 3101 3105 3109 3110 3112 3113 3117 3119 3121 3124 3127 3128 3130 3132 3134 3135 3137 3138 3139 3141 3142 3143 3144 3146 3148 3150 3152 3152 3152 3151 3149
3039 3046 3051 3055 3060 3064 3071 3076 3080 3082 3086 3088 3090 3094 3097 3099 3101 3104 3107 3109 3110 3113 3116 3118 3120 3121 3124 3125 3127 3129 3131 3131 3133 3134 3136 3136 3137 3138 3138 3137 3136 3136 3135
3024 3029 3037 3043 3050 3056 3060 3064 3069 3070 3073 3077 3080 3083 3086 3088 3091 3094 3096 3098 3100 3102 3104 3106 3108 3111 3113 3116 3118 3120 3121 3122 3123 3123 3125 3127 3127 3125 3123 3123 3125 3125 3124
3010 3016 3023 3030 3037 3045 3049 3053 3057 3060 3062 3066 3069 3072 3076 3077 3080 3083 3085 3086 3088 3090 3093 3096 3099 3101 3104 3107 3109 3110 3111 3112 3114 3116 3117 3116 3114 3113 3113 3114 3114 3113 3111
2996 3003 3008 3014 3024 3030 3037 3041 3043 3047 3051 3055 3059 3061 3063 3065 3068 3070 3072 3074 3076 3079 3083 3085 3088 3090 3092 3094 3099 3099 3100 3102 3103 3104 3105 3104 3102 3102 3103 3103 3103 3103 3102
2984 2990 2995 3001 3010 3018 3023 3027 3030 3033 3037 3042 3045 3047 3049 3052 3054 3056 3058 3060 3064 3068 3070 3074 3076 3078 3080 3079 3084 3088 3089 3090 3092 3092 3092 3092 3092 3093 3093 3094 3094 3095 3094
2974 2979 2985 2991 2998 3003 3009 3013 3016 3021 3025 3027 3031 3033 3036 3038 3041 3044 3047 3049 3052 3053 3057 3061 3063 3066 3067 3071 3075 3075 3076 3078 3079 3079 3080 3082 3082 3083 3084 3084 3084 3084 3084
2966 2971 2976 2980 2984 2989 2995 3000 3002 3008 3011 3013 3016 3019 3021 3025 3028 3031 3036 3038 3041 3045 3048 3050 3053 3053 3056 3058 3057 3062 3063 3067 3069 3069 3069 3070 3071 3073 3074 3074 3074 3073 3073